Wetterdaten: aktuell Mittwoch, 18.09.2019 07:52
Datum Zeit Temp. 2m Temp. 5cm Temp. -10cm Feuchte 2m Luftdruck Regen Wind Richtung Richtung Taupunkt Windchill Windben
18.09.2019 07:52 10,3 C 10,5 C 15,1 C 65 % 1018,9 hPa 0,0 l/m 4,2 km/h (1 Bft) S-SO 157 4,0 C 10,3 C 8,3 km/h (2 Bft)
18.09.2019 07:50 10,3 C 10,4 C 15,1 C 65 % 1018,9 hPa 0,0 l/m 3,1 km/h (1 Bft) SO 135 4,0 C 10,3 C 6,6 km/h (2 Bft)
18.09.2019 07:48 10,3 C 10,5 C 15,1 C 65 % 1018,9 hPa 0,0 l/m 2,3 km/h (1 Bft) S-SO 157 4,0 C 10,3 C 9,1 km/h (2 Bft)
18.09.2019 07:46 10,3 C 10,6 C 15,1 C 65 % 1018,9 hPa 0,0 l/m 1,3 km/h (1 Bft) S-SO 157 4,0 C 10,3 C 4,1 km/h (1 Bft)
18.09.2019 07:44 10,3 C 10,6 C 15,1 C 65 % 1018,9 hPa 0,0 l/m 1,3 km/h (1 Bft) S-SO 157 4,0 C 10,3 C 4,1 km/h (1 Bft)
18.09.2019 07:42 10,2 C 10,6 C 15,1 C 65 % 1018,9 hPa 0,0 l/m 1,4 km/h (1 Bft) S-SO 157 3,9 C 10,2 C 5,6 km/h (1 Bft)
18.09.2019 07:40 10,2 C 10,5 C 15,2 C 65 % 1018,9 hPa 0,0 l/m 2,6 km/h (1 Bft) SO 135 3,9 C 10,2 C 2,1 km/h (1 Bft)
18.09.2019 07:38 10,2 C 10,4 C 15,2 C 64 % 1018,9 hPa 0,0 l/m 4,5 km/h (1 Bft) SO 135 3,7 C 10,2 C 0,0 km/h (0 Bft)
18.09.2019 07:36 10,3 C 10,3 C 15,2 C 64 % 1018,9 hPa 0,0 l/m 5,3 km/h (1 Bft) SO 135 3,8 C 10,3 C 0,0 km/h (0 Bft)
18.09.2019 07:34 10,2 C 10,3 C 15,2 C 64 % 1018,9 hPa 0,0 l/m 5,6 km/h (1 Bft) NW 315 3,7 C 10,2 C 2,9 km/h (1 Bft)
18.09.2019 07:32 10,2 C 10,2 C 15,2 C 64 % 1018,9 hPa 0,0 l/m 6,3 km/h (2 Bft) W-NW 292 3,7 C 10,2 C 5,0 km/h (1 Bft)
18.09.2019 07:30 10,2 C 10,3 C 15,2 C 64 % 1018,9 hPa 0,0 l/m 6,4 km/h (2 Bft) W-NW 292 3,7 C 10,2 C 10,0 km/h (2 Bft)
18.09.2019 07:28 10,2 C 10,3 C 15,2 C 64 % 1018,9 hPa 0,0 l/m 5,6 km/h (1 Bft) W-NW 292 3,7 C 10,2 C 13,7 km/h (3 Bft)
18.09.2019 07:26 10,2 C 10,2 C 15,2 C 64 % 1018,9 hPa 0,0 l/m 5,0 km/h (1 Bft) NW 315 3,7 C 10,2 C 3,3 km/h (1 Bft)
18.09.2019 07:24 10,2 C 10,2 C 15,2 C 64 % 1018,9 hPa 0,0 l/m 5,5 km/h (1 Bft) W-NW 292 3,7 C 10,2 C 5,4 km/h (1 Bft)
18.09.2019 07:22 10,2 C 10,1 C 15,2 C 64 % 1018,9 hPa 0,0 l/m 5,8 km/h (2 Bft) W-NW 292 3,7 C 10,2 C 7,5 km/h (2 Bft)
18.09.2019 07:20 10,2 C 10,2 C 15,2 C 64 % 1018,9 hPa 0,0 l/m 6,1 km/h (2 Bft) W 270 3,7 C 10,2 C 9,1 km/h (2 Bft)
18.09.2019 07:18 10,2 C 10,2 C 15,2 C 64 % 1018,9 hPa 0,0 l/m 5,6 km/h (1 Bft) W-NW 292 3,7 C 10,2 C 10,0 km/h (2 Bft)
18.09.2019 07:16 10,2 C 10,1 C 15,2 C 64 % 1018,9 hPa 0,0 l/m 5,8 km/h (2 Bft) NW 315 3,7 C 10,2 C 5,2 km/h (1 Bft)
18.09.2019 07:14 10,2 C 10,1 C 15,2 C 63 % 1018,5 hPa 0,0 l/m 5,5 km/h (1 Bft) NW 315 3,5 C 10,2 C 7,3 km/h (2 Bft)
18.09.2019 07:12 10,2 C 10,1 C 15,2 C 63 % 1018,5 hPa 0,0 l/m 5,1 km/h (1 Bft) W 270 3,5 C 10,2 C 9,5 km/h (2 Bft)
18.09.2019 07:10 10,2 C 10,1 C 15,2 C 63 % 1018,5 hPa 0,0 l/m 5,3 km/h (1 Bft) W-NW 292 3,5 C 10,2 C 13,9 km/h (3 Bft)
18.09.2019 07:08 10,2 C 10,1 C 15,3 C 63 % 1018,5 hPa 0,0 l/m 5,5 km/h (1 Bft) NW 315 3,5 C 10,2 C 7,0 km/h (2 Bft)
18.09.2019 07:06 10,3 C 10,1 C 15,3 C 63 % 1018,5 hPa 0,0 l/m 6,4 km/h (2 Bft) NW 315 3,6 C 10,3 C 10,0 km/h (2 Bft)
18.09.2019 07:04 10,3 C 10,0 C 15,3 C 63 % 1018,5 hPa 0,0 l/m 7,9 km/h (2 Bft) W-NW 292 3,6 C 9,2 C 6,8 km/h (2 Bft)
18.09.2019 07:02 10,3 C 10,1 C 15,3 C 63 % 1018,5 hPa 0,0 l/m 8,4 km/h (2 Bft) W-NW 292 3,6 C 8,9 C 10,6 km/h (2 Bft)
18.09.2019 07:00 10,3 C 10,1 C 15,3 C 63 % 1018,5 hPa 0,0 l/m 8,7 km/h (2 Bft) W-NW 292 3,6 C 8,7 C 13,5 km/h (3 Bft)
18.09.2019 06:58 10,3 C 10,1 C 15,3 C 63 % 1018,5 hPa 0,0 l/m 9,8 km/h (2 Bft) NW 315 3,6 C 8,0 C 9,5 km/h (2 Bft)
18.09.2019 06:56 10,3 C 10,2 C 15,3 C 63 % 1018,5 hPa 0,0 l/m 10,3 km/h (2 Bft) SW 225 3,6 C 7,8 C 16,6 km/h (3 Bft)
18.09.2019 06:54 10,3 C 10,2 C 15,3 C 63 % 1018,5 hPa 0,0 l/m 10,0 km/h (2 Bft) W-NW 292 3,6 C 7,9 C 14,3 km/h (3 Bft)
18.09.2019 06:52 10,3 C 10,2 C 15,3 C 63 % 1018,5 hPa 0,0 l/m 10,6 km/h (2 Bft) N-NW 337 3,6 C 7,6 C 10,0 km/h (2 Bft)
18.09.2019 06:50 10,3 C 10,2 C 15,3 C 63 % 1018,5 hPa 0,0 l/m 12,6 km/h (3 Bft) W-SW 247 3,6 C 6,6 C 16,2 km/h (3 Bft)
18.09.2019 06:48 10,3 C 10,2 C 15,3 C 63 % 1018,5 hPa 0,0 l/m 11,6 km/h (2 Bft) NW 315 3,6 C 7,1 C 14,9 km/h (3 Bft)
18.09.2019 06:46 10,3 C 10,1 C 15,4 C 63 % 1018,5 hPa 0,0 l/m 12,4 km/h (3 Bft) W-NW 292 3,6 C 6,7 C 18,3 km/h (3 Bft)
18.09.2019 06:44 10,4 C 10,2 C 15,4 C 63 % 1018,5 hPa 0,0 l/m 13,4 km/h (3 Bft) W 270 3,7 C 6,3 C 16,0 km/h (3 Bft)
18.09.2019 06:42 10,4 C 10,3 C 15,4 C 63 % 1018,5 hPa 0,0 l/m 13,7 km/h (3 Bft) W 270 3,7 C 6,2 C 18,3 km/h (3 Bft)
18.09.2019 06:40 10,4 C 10,3 C 15,4 C 63 % 1018,5 hPa 0,0 l/m 12,7 km/h (3 Bft) N-NO 22 3,7 C 6,6 C 24,7 km/h (4 Bft)
18.09.2019 06:38 10,4 C 10,2 C 15,4 C 63 % 1018,5 hPa 0,0 l/m 12,2 km/h (2 Bft) NW 315 3,7 C 6,9 C 6,0 km/h (2 Bft)
18.09.2019 06:36 10,4 C 10,3 C 15,4 C 63 % 1018,5 hPa 0,0 l/m 12,9 km/h (3 Bft) NW 315 3,7 C 6,5 C 23,6 km/h (4 Bft)
18.09.2019 06:34 10,4 C 10,3 C 15,4 C 63 % 1018,2 hPa 0,0 l/m 11,7 km/h (2 Bft) N 360 3,7 C 7,1 C 22,8 km/h (4 Bft)
18.09.2019 06:32 10,4 C 10,3 C 15,4 C 63 % 1018,2 hPa 0,0 l/m 10,3 km/h (2 Bft) W-NW 292 3,7 C 7,9 C 32,3 km/h (5 Bft)
18.09.2019 06:30 10,4 C 10,2 C 15,4 C 63 % 1018,2 hPa 0,0 l/m 9,0 km/h (2 Bft) NW 315 3,7 C 8,6 C 7,9 km/h (2 Bft)
18.09.2019 06:28 10,4 C 10,2 C 15,4 C 63 % 1018,2 hPa 0,0 l/m 10,1 km/h (2 Bft) S-SO 157 3,7 C 8,0 C 13,3 km/h (3 Bft)
18.09.2019 06:26 10,4 C 10,2 C 15,4 C 63 % 1018,2 hPa 0,0 l/m 10,9 km/h (2 Bft) W-NW 292 3,7 C 7,5 C 24,1 km/h (4 Bft)
18.09.2019 06:24 10,4 C 10,2 C 15,5 C 63 % 1018,2 hPa 0,0 l/m 11,3 km/h (2 Bft) NW 315 3,7 C 7,3 C 13,3 km/h (3 Bft)
18.09.2019 06:22 10,4 C 10,3 C 15,5 C 63 % 1018,2 hPa 0,0 l/m 11,9 km/h (2 Bft) W 270 3,7 C 7,0 C 8,1 km/h (2 Bft)
18.09.2019 06:20 10,5 C 10,3 C 15,5 C 63 % 1018,2 hPa 0,0 l/m 12,6 km/h (3 Bft) NW 315 3,8 C 6,8 C 21,0 km/h (4 Bft)
18.09.2019 06:18 10,5 C 10,3 C 15,5 C 63 % 1018,2 hPa 0,0 l/m 12,1 km/h (2 Bft) W-NW 292 3,8 C 7,0 C 16,0 km/h (3 Bft)
18.09.2019 06:16 10,5 C 10,4 C 15,5 C 63 % 1018,2 hPa 0,0 l/m 10,6 km/h (2 Bft) N-NW 337 3,8 C 7,8 C 12,7 km/h (3 Bft)
18.09.2019 06:14 10,5 C 10,4 C 15,5 C 63 % 1017,9 hPa 0,0 l/m 10,5 km/h (2 Bft) W-NW 292 3,8 C 7,9 C 20,5 km/h (4 Bft)
18.09.2019 06:12 10,6 C 10,4 C 15,5 C 63 % 1017,9 hPa 0,0 l/m 9,5 km/h (2 Bft) N 360 3,9 C 8,5 C 7,9 km/h (2 Bft)
18.09.2019 06:10 10,8 C 10,6 C 15,5 C 63 % 1017,9 hPa 0,0 l/m 9,5 km/h (2 Bft) N 360 4,0 C 8,8 C 7,9 km/h (2 Bft)
18.09.2019 06:08 10,8 C 10,6 C 15,5 C 63 % 1017,9 hPa 0,0 l/m 9,5 km/h (2 Bft) N 360 4,0 C 8,8 C 7,9 km/h (2 Bft)
18.09.2019 06:06 10,8 C 10,6 C 15,5 C 63 % 1017,9 hPa 0,0 l/m 9,5 km/h (2 Bft) N 360 4,0 C 8,8 C 7,9 km/h (2 Bft)
18.09.2019 06:04 10,8 C 10,6 C 15,5 C 63 % 1017,9 hPa 0,0 l/m 9,5 km/h (2 Bft) N 360 4,0 C 8,8 C 7,9 km/h (2 Bft)
18.09.2019 06:02 10,8 C 10,6 C 15,5 C 63 % 1017,9 hPa 0,0 l/m 9,5 km/h (2 Bft) W-NW 292 4,0 C 8,8 C 14,5 km/h (3 Bft)
18.09.2019 06:00 10,8 C 10,6 C 15,5 C 63 % 1017,9 hPa 0,0 l/m 9,5 km/h (2 Bft) NW 315 4,0 C 8,8 C 11,0 km/h (2 Bft)
18.09.2019 05:58 10,9 C 10,7 C 15,6 C 63 % 1017,9 hPa 0,0 l/m 9,5 km/h (2 Bft) W-NW 292 4,1 C 8,9 C 18,7 km/h (3 Bft)
18.09.2019 05:56 10,9 C 10,8 C 15,6 C 63 % 1017,9 hPa 0,0 l/m 7,9 km/h (2 Bft) NW 315 4,1 C 9,9 C 17,4 km/h (3 Bft)
18.09.2019 05:54 10,9 C 10,7 C 15,6 C 63 % 1017,7 hPa 0,0 l/m 7,1 km/h (2 Bft) W-NW 292 4,1 C 10,4 C 13,7 km/h (3 Bft)
18.09.2019 05:52 10,9 C 10,6 C 15,6 C 63 % 1017,7 hPa 0,0 l/m 7,2 km/h (2 Bft) W-NW 292 4,1 C 10,3 C 6,4 km/h (2 Bft)
18.09.2019 05:50 10,9 C 10,7 C 15,6 C 63 % 1017,7 hPa 0,0 l/m 7,2 km/h (2 Bft) W 270 4,1 C 10,3 C 13,5 km/h (3 Bft)
18.09.2019 05:48 11,0 C 10,7 C 15,6 C 63 % 1017,7 hPa 0,0 l/m 6,3 km/h (2 Bft) W-NW 292 4,2 C 11,0 C 10,2 km/h (2 Bft)
18.09.2019 05:46 11,0 C 10,6 C 15,6 C 63 % 1017,7 hPa 0,0 l/m 7,1 km/h (2 Bft) NW 315 4,2 C 10,5 C 7,0 km/h (2 Bft)
18.09.2019 05:44 11,0 C 10,7 C 15,6 C 63 % 1017,7 hPa 0,0 l/m 6,9 km/h (2 Bft) W-NW 292 4,2 C 10,7 C 8,9 km/h (2 Bft)
18.09.2019 05:42 11,1 C 10,7 C 15,6 C 63 % 1017,7 hPa 0,0 l/m 7,2 km/h (2 Bft) W-NW 292 4,3 C 10,5 C 22,8 km/h (4 Bft)
18.09.2019 05:40 11,2 C 10,7 C 15,6 C 63 % 1017,7 hPa 0,0 l/m 8,4 km/h (2 Bft) SW 225 4,4 C 9,9 C 9,1 km/h (2 Bft)
18.09.2019 05:38 11,3 C 10,7 C 15,6 C 63 % 1017,7 hPa 0,0 l/m 8,2 km/h (2 Bft) S-SW 202 4,5 C 10,1 C 4,2 km/h (1 Bft)
18.09.2019 05:36 11,3 C 10,8 C 15,6 C 63 % 1017,7 hPa 0,0 l/m 8,9 km/h (2 Bft) SW 225 4,5 C 9,7 C 16,2 km/h (3 Bft)
18.09.2019 05:34 11,3 C 10,7 C 15,6 C 63 % 1017,6 hPa 0,0 l/m 8,9 km/h (2 Bft) W-SW 247 4,5 C 9,7 C 7,0 km/h (2 Bft)
18.09.2019 05:32 11,4 C 10,9 C 15,6 C 63 % 1017,6 hPa 0,0 l/m 8,4 km/h (2 Bft) S-SW 202 4,6 C 10,1 C 14,7 km/h (3 Bft)
18.09.2019 05:30 11,4 C 11,0 C 15,7 C 63 % 1017,6 hPa 0,0 l/m 6,6 km/h (2 Bft) O-NO 67 4,6 C 11,3 C 21,4 km/h (4 Bft)
18.09.2019 05:28 11,4 C 10,8 C 15,7 C 63 % 1017,6 hPa 0,0 l/m 6,0 km/h (2 Bft) SO 135 4,6 C 11,4 C 6,4 km/h (2 Bft)
18.09.2019 05:26 11,4 C 10,7 C 15,7 C 63 % 1017,6 hPa 0,0 l/m 6,4 km/h (2 Bft) S-SO 157 4,6 C 11,4 C 23,6 km/h (4 Bft)
18.09.2019 05:24 11,4 C 10,6 C 15,7 C 63 % 1017,6 hPa 0,0 l/m 6,0 km/h (2 Bft) S 180 4,6 C 11,4 C 8,7 km/h (2 Bft)
18.09.2019 05:22 11,4 C 10,7 C 15,7 C 63 % 1017,6 hPa 0,0 l/m 6,1 km/h (2 Bft) SO 135 4,6 C 11,4 C 4,6 km/h (1 Bft)
18.09.2019 05:20 11,4 C 10,8 C 15,7 C 62 % 1017,6 hPa 0,0 l/m 6,4 km/h (2 Bft) W 270 4,4 C 11,4 C 4,2 km/h (1 Bft)
18.09.2019 05:18 11,5 C 10,9 C 15,7 C 62 % 1017,6 hPa 0,0 l/m 6,4 km/h (2 Bft) W 270 4,5 C 11,5 C 10,6 km/h (2 Bft)
18.09.2019 05:16 11,4 C 10,9 C 15,7 C 62 % 1017,6 hPa 0,0 l/m 6,0 km/h (2 Bft) NW 315 4,4 C 11,4 C 16,2 km/h (3 Bft)
18.09.2019 05:14 11,5 C 10,9 C 15,7 C 62 % 1017,6 hPa 0,0 l/m 5,1 km/h (1 Bft) NW 315 4,5 C 11,5 C 9,3 km/h (2 Bft)
18.09.2019 05:12 11,4 C 10,9 C 15,7 C 62 % 1017,6 hPa 0,0 l/m 4,8 km/h (1 Bft) SO 135 4,4 C 11,4 C 5,2 km/h (1 Bft)
18.09.2019 05:10 11,4 C 10,9 C 15,7 C 62 % 1017,6 hPa 0,0 l/m 5,5 km/h (1 Bft) SO 135 4,4 C 11,4 C 3,5 km/h (1 Bft)
18.09.2019 05:08 11,5 C 11,0 C 15,7 C 62 % 1017,6 hPa 0,0 l/m 6,0 km/h (2 Bft) W 270 4,5 C 11,5 C 10,8 km/h (2 Bft)
18.09.2019 05:06 11,5 C 11,1 C 15,7 C 62 % 1017,6 hPa 0,0 l/m 5,3 km/h (1 Bft) SW 225 4,5 C 11,5 C 5,4 km/h (1 Bft)
18.09.2019 05:04 11,5 C 11,0 C 15,7 C 62 % 1017,6 hPa 0,0 l/m 5,8 km/h (2 Bft) W-NW 292 4,5 C 11,5 C 7,3 km/h (2 Bft)
18.09.2019 05:02 11,5 C 11,0 C 15,8 C 62 % 1017,6 hPa 0,0 l/m 6,0 km/h (2 Bft) S-SW 202 4,5 C 11,5 C 8,9 km/h (2 Bft)
18.09.2019 05:00 11,6 C 11,1 C 15,8 C 62 % 1017,6 hPa 0,0 l/m 6,1 km/h (2 Bft) W 270 4,6 C 11,6 C 6,4 km/h (2 Bft)
18.09.2019 04:58 11,6 C 11,1 C 15,8 C 62 % 1017,6 hPa 0,0 l/m 6,9 km/h (2 Bft) S-SO 157 4,6 C 11,3 C 2,3 km/h (1 Bft)
18.09.2019 04:56 11,6 C 11,1 C 15,8 C 62 % 1017,6 hPa 0,0 l/m 8,7 km/h (2 Bft) W-NW 292 4,6 C 10,1 C 8,1 km/h (2 Bft)
18.09.2019 04:54 11,6 C 11,2 C 15,8 C 62 % 1017,3 hPa 0,0 l/m 10,3 km/h (2 Bft) S-SW 202 4,6 C 9,2 C 7,9 km/h (2 Bft)
18.09.2019 04:52 11,6 C 11,3 C 15,8 C 62 % 1017,3 hPa 0,0 l/m 11,1 km/h (2 Bft) NW 315 4,6 C 8,8 C 14,7 km/h (3 Bft)
18.09.2019 04:50 11,6 C 11,2 C 15,8 C 62 % 1017,3 hPa 0,0 l/m 10,9 km/h (2 Bft) NW 315 4,6 C 8,9 C 9,1 km/h (2 Bft)
18.09.2019 04:48 11,6 C 11,3 C 15,8 C 62 % 1017,3 hPa 0,0 l/m 11,4 km/h (2 Bft) W-NW 292 4,6 C 8,6 C 14,5 km/h (3 Bft)
18.09.2019 04:46 11,7 C 11,5 C 15,8 C 62 % 1017,3 hPa 0,0 l/m 10,8 km/h (2 Bft) NW 315 4,7 C 9,1 C 24,1 km/h (4 Bft)
18.09.2019 04:44 11,7 C 11,4 C 15,8 C 62 % 1017,3 hPa 0,0 l/m 8,9 km/h (2 Bft) W-NW 292 4,7 C 10,1 C 13,3 km/h (3 Bft)
18.09.2019 04:42 11,7 C 11,3 C 15,8 C 62 % 1017,3 hPa 0,0 l/m 7,4 km/h (2 Bft) SW 225 4,7 C 11,0 C 13,9 km/h (3 Bft)
18.09.2019 04:40 11,6 C 11,2 C 15,8 C 62 % 1017,3 hPa 0,0 l/m 6,8 km/h (2 Bft) W-SW 247 4,6 C 11,3 C 9,3 km/h (2 Bft)
18.09.2019 04:38 11,8 C 11,2 C 15,9 C 62 % 1017,3 hPa 0,0 l/m 5,6 km/h (1 Bft) NW 315 4,8 C 11,8 C 12,2 km/h (2 Bft)
18.09.2019 04:36 11,8 C 11,1 C 15,9 C 62 % 1017,3 hPa 0,0 l/m 5,1 km/h (1 Bft) NW 315 4,8 C 11,8 C 17,4 km/h (3 Bft)
18.09.2019 04:34 11,7 C 11,0 C 15,9 C 62 % 1017,0 hPa 0,0 l/m 5,6 km/h (1 Bft) SW 225 4,7 C 11,7 C 11,6 km/h (2 Bft)
18.09.2019 04:32 11,8 C 11,0 C 15,9 C 62 % 1017,0 hPa 0,0 l/m 7,7 km/h (2 Bft) W-NW 292 4,8 C 10,9 C 4,8 km/h (1 Bft)
18.09.2019 04:30 11,8 C 11,0 C 15,9 C 62 % 1017,0 hPa 0,0 l/m 11,4 km/h (2 Bft) S-SO 157 4,8 C 8,9 C 3,9 km/h (1 Bft)
18.09.2019 04:28 11,8 C 11,0 C 15,9 C 62 % 1017,0 hPa 0,0 l/m 12,1 km/h (2 Bft) SW 225 4,8 C 8,5 C 9,8 km/h (2 Bft)
18.09.2019 04:26 11,8 C 11,2 C 15,9 C 62 % 1017,0 hPa 0,0 l/m 13,5 km/h (3 Bft) SW 225 4,8 C 7,9 C 11,4 km/h (2 Bft)
18.09.2019 04:24 11,8 C 11,5 C 15,9 C 62 % 1017,0 hPa 0,0 l/m 13,4 km/h (3 Bft) SW 225 4,8 C 8,0 C 14,5 km/h (3 Bft)
18.09.2019 04:22 11,9 C 11,6 C 15,9 C 62 % 1017,0 hPa 0,0 l/m 13,7 km/h (3 Bft) NW 315 4,9 C 8,0 C 19,9 km/h (4 Bft)
18.09.2019 04:20 11,9 C 11,6 C 15,9 C 62 % 1017,0 hPa 0,0 l/m 10,5 km/h (2 Bft) NW 315 4,9 C 9,4 C 30,1 km/h (5 Bft)
18.09.2019 04:18 11,9 C 11,4 C 15,9 C 62 % 1017,0 hPa 0,0 l/m 10,1 km/h (2 Bft) W 270 4,9 C 9,6 C 10,0 km/h (2 Bft)
18.09.2019 04:16 11,9 C 11,4 C 15,9 C 62 % 1017,0 hPa 0,0 l/m 9,5 km/h (2 Bft) W 270 4,9 C 10,0 C 19,1 km/h (3 Bft)
18.09.2019 04:14 11,9 C 11,4 C 16,0 C 62 % 1017,0 hPa 0,0 l/m 9,0 km/h (2 Bft) NW 315 4,9 C 10,2 C 10,8 km/h (2 Bft)
18.09.2019 04:12 11,9 C 11,4 C 16,0 C 62 % 1017,0 hPa 0,0 l/m 7,9 km/h (2 Bft) W 270 4,9 C 10,9 C 23,6 km/h (4 Bft)
18.09.2019 04:10 11,9 C 11,3 C 16,0 C 62 % 1017,0 hPa 0,0 l/m 10,0 km/h (2 Bft) S-SO 157 4,9 C 9,7 C 6,8 km/h (2 Bft)
18.09.2019 04:08 11,9 C 11,5 C 16,0 C 62 % 1017,0 hPa 0,0 l/m 8,9 km/h (2 Bft) NW 315 4,9 C 10,3 C 16,2 km/h (3 Bft)
18.09.2019 04:06 12,0 C 11,5 C 16,0 C 62 % 1017,0 hPa 0,0 l/m 8,4 km/h (2 Bft) W-NW 292 4,9 C 10,7 C 8,1 km/h (2 Bft)
18.09.2019 04:04 12,0 C 11,5 C 16,0 C 62 % 1017,0 hPa 0,0 l/m 8,0 km/h (2 Bft) W-SW 247 4,9 C 11,0 C 11,6 km/h (2 Bft)
18.09.2019 04:02 12,1 C 11,6 C 16,0 C 62 % 1017,0 hPa 0,0 l/m 8,0 km/h (2 Bft) W-NW 292 5,0 C 11,1 C 3,1 km/h (1 Bft)
18.09.2019 04:00 12,1 C 11,6 C 16,0 C 62 % 1017,0 hPa 0,0 l/m 6,6 km/h (2 Bft) NW 315 5,0 C 12,0 C 41,7 km/h (6 Bft)
18.09.2019 03:58 12,0 C 11,4 C 16,0 C 62 % 1017,0 hPa 0,0 l/m 4,5 km/h (1 Bft) W-NW 292 4,9 C 12,0 C 10,8 km/h (2 Bft)
18.09.2019 03:56 12,1 C 11,2 C 16,0 C 62 % 1017,0 hPa 0,0 l/m 5,3 km/h (1 Bft) S-SW 202 5,0 C 12,1 C 5,0 km/h (1 Bft)
18.09.2019 03:54 12,1 C 11,2 C 16,0 C 62 % 1016,9 hPa 0,0 l/m 7,1 km/h (2 Bft) S-SO 157 5,0 C 11,6 C 5,6 km/h (1 Bft)
18.09.2019 03:52 12,1 C 11,2 C 16,0 C 62 % 1016,9 hPa 0,0 l/m 7,9 km/h (2 Bft) NW 315 5,0 C 11,1 C 7,9 km/h (2 Bft)
18.09.2019 03:50 12,1 C 11,3 C 16,0 C 62 % 1016,9 hPa 0,0 l/m 8,4 km/h (2 Bft) O-SO 112 5,0 C 10,8 C 3,3 km/h (1 Bft)
18.09.2019 03:48 12,1 C 11,4 C 16,0 C 62 % 1016,9 hPa 0,0 l/m 9,0 km/h (2 Bft) S-SW 202 5,0 C 10,5 C 7,0 km/h (2 Bft)
18.09.2019 03:46 12,1 C 11,6 C 16,1 C 62 % 1016,9 hPa 0,0 l/m 9,3 km/h (2 Bft) W 270 5,0 C 10,3 C 14,1 km/h (3 Bft)
18.09.2019 03:44 12,2 C 11,7 C 16,1 C 62 % 1016,9 hPa 0,0 l/m 9,0 km/h (2 Bft) W-NW 292 5,1 C 10,6 C 17,6 km/h (3 Bft)
18.09.2019 03:42 12,2 C 11,6 C 16,0 C 62 % 1016,9 hPa 0,0 l/m 7,2 km/h (2 Bft) NW 315 5,1 C 11,7 C 15,8 km/h (3 Bft)
18.09.2019 03:40 12,2 C 11,6 C 16,0 C 62 % 1016,9 hPa 0,0 l/m 6,1 km/h (2 Bft) N-NW 337 5,1 C 12,2 C 15,6 km/h (3 Bft)
18.09.2019 03:38 12,2 C 11,6 C 16,0 C 62 % 1016,9 hPa 0,0 l/m 4,7 km/h (1 Bft) SW 225 5,1 C 12,2 C 8,1 km/h (2 Bft)
18.09.2019 03:36 12,3 C 11,6 C 16,0 C 62 % 1016,9 hPa 0,0 l/m 4,3 km/h (1 Bft) W-NW 292 5,2 C 12,3 C 13,5 km/h (3 Bft)
18.09.2019 03:34 12,3 C 11,5 C 16,0 C 62 % 1016,8 hPa 0,0 l/m 3,4 km/h (1 Bft) W-NW 292 5,2 C 12,3 C 13,5 km/h (3 Bft)
18.09.2019 03:32 12,3 C 11,1 C 16,0 C 62 % 1016,8 hPa 0,0 l/m 4,5 km/h (1 Bft) W-NW 292 5,2 C 12,3 C 4,8 km/h (1 Bft)
18.09.2019 03:30 12,4 C 11,3 C 16,0 C 62 % 1016,8 hPa 0,0 l/m 5,0 km/h (1 Bft) S-SW 202 5,3 C 12,4 C 0,0 km/h (0 Bft)
18.09.2019 03:28 12,4 C 11,5 C 16,0 C 62 % 1016,8 hPa 0,0 l/m 5,8 km/h (2 Bft) S-SW 202 5,3 C 12,4 C 5,2 km/h (1 Bft)
18.09.2019 03:26 12,5 C 11,6 C 16,0 C 62 % 1016,8 hPa 0,0 l/m 6,0 km/h (2 Bft) W-NW 292 5,4 C 12,5 C 5,0 km/h (1 Bft)
18.09.2019 03:24 12,4 C 11,7 C 16,0 C 62 % 1016,8 hPa 0,0 l/m 6,1 km/h (2 Bft) N-NO 22 5,3 C 12,4 C 9,7 km/h (2 Bft)
18.09.2019 03:22 12,4 C 11,7 C 16,0 C 62 % 1016,8 hPa 0,0 l/m 6,0 km/h (2 Bft) W-NW 292 5,3 C 12,4 C 20,7 km/h (4 Bft)
18.09.2019 03:20 12,4 C 11,3 C 16,0 C 62 % 1016,8 hPa 0,0 l/m 5,3 km/h (1 Bft) S-SW 202 5,3 C 12,4 C 5,0 km/h (1 Bft)
18.09.2019 03:18 12,4 C 11,3 C 16,1 C 62 % 1016,8 hPa 0,0 l/m 5,8 km/h (2 Bft) W-NW 292 5,3 C 12,4 C 7,5 km/h (2 Bft)
18.09.2019 03:16 12,5 C 11,4 C 16,1 C 62 % 1016,8 hPa 0,0 l/m 6,0 km/h (2 Bft) SW 225 5,4 C 12,5 C 7,1 km/h (2 Bft)
18.09.2019 03:14 12,5 C 11,6 C 16,1 C 62 % 1016,6 hPa 0,0 l/m 6,1 km/h (2 Bft) W-SW 247 5,4 C 12,5 C 10,8 km/h (2 Bft)
18.09.2019 03:12 12,5 C 11,7 C 16,1 C 62 % 1016,6 hPa 0,0 l/m 7,9 km/h (2 Bft) NW 315 5,4 C 11,5 C 13,3 km/h (3 Bft)
18.09.2019 03:10 12,6 C 11,5 C 16,1 C 63 % 1016,6 hPa 0,0 l/m 7,9 km/h (2 Bft) NW 315 5,7 C 11,6 C 13,3 km/h (3 Bft)
18.09.2019 03:08 12,6 C 11,5 C 16,1 C 63 % 1016,6 hPa 0,0 l/m 7,9 km/h (2 Bft) NW 315 5,7 C 11,6 C 13,3 km/h (3 Bft)
18.09.2019 03:06 12,6 C 11,5 C 16,1 C 63 % 1016,6 hPa 0,0 l/m 7,9 km/h (2 Bft) NW 315 5,7 C 11,6 C 13,3 km/h (3 Bft)
18.09.2019 03:04 12,6 C 11,5 C 16,1 C 63 % 1016,6 hPa 0,0 l/m 7,9 km/h (2 Bft) NW 315 5,7 C 11,6 C 13,3 km/h (3 Bft)
18.09.2019 03:02 12,6 C 11,5 C 16,1 C 63 % 1016,6 hPa 0,0 l/m 7,7 km/h (2 Bft) W-NW 292 5,7 C 11,8 C 11,2 km/h (2 Bft)
18.09.2019 03:00 12,6 C 11,5 C 16,1 C 63 % 1016,6 hPa 0,0 l/m 7,9 km/h (2 Bft) S-SW 202 5,7 C 11,6 C 9,7 km/h (2 Bft)
18.09.2019 02:58 12,7 C 11,5 C 16,1 C 63 % 1016,6 hPa 0,0 l/m 7,6 km/h (2 Bft) S-SO 157 5,8 C 11,9 C 8,5 km/h (2 Bft)
18.09.2019 02:56 12,7 C 11,7 C 16,1 C 63 % 1016,6 hPa 0,0 l/m 7,7 km/h (2 Bft) S 180 5,8 C 11,9 C 18,3 km/h (3 Bft)
18.09.2019 02:54 12,8 C 11,7 C 16,1 C 63 % 1016,6 hPa 0,0 l/m 8,2 km/h (2 Bft) SO 135 5,9 C 11,7 C 15,1 km/h (3 Bft)
18.09.2019 02:52 12,8 C 11,8 C 16,1 C 63 % 1016,6 hPa 0,0 l/m 8,5 km/h (2 Bft) SO 135 5,9 C 11,5 C 6,6 km/h (2 Bft)
18.09.2019 02:50 12,8 C 11,6 C 16,2 C 63 % 1016,6 hPa 0,0 l/m 8,9 km/h (2 Bft) SO 135 5,9 C 11,3 C 9,7 km/h (2 Bft)
18.09.2019 02:48 12,8 C 11,7 C 16,2 C 63 % 1016,6 hPa 0,0 l/m 8,5 km/h (2 Bft) W-NW 292 5,9 C 11,5 C 5,8 km/h (2 Bft)
18.09.2019 02:46 12,8 C 11,9 C 16,2 C 63 % 1016,6 hPa 0,0 l/m 8,0 km/h (2 Bft) SW 225 5,9 C 11,8 C 16,6 km/h (3 Bft)
18.09.2019 02:44 12,8 C 12,2 C 16,2 C 63 % 1016,6 hPa 0,0 l/m 7,6 km/h (2 Bft) S-SW 202 5,9 C 12,0 C 15,1 km/h (3 Bft)
18.09.2019 02:42 12,8 C 11,9 C 16,2 C 63 % 1016,6 hPa 0,0 l/m 6,8 km/h (2 Bft) SW 225 5,9 C 12,6 C 14,7 km/h (3 Bft)
18.09.2019 02:40 12,8 C 11,8 C 16,2 C 63 % 1016,6 hPa 0,0 l/m 5,6 km/h (1 Bft) S-SO 157 5,9 C 12,8 C 15,4 km/h (3 Bft)
18.09.2019 02:38 12,8 C 11,8 C 16,2 C 63 % 1016,6 hPa 0,0 l/m 5,3 km/h (1 Bft) S-SW 202 5,9 C 12,8 C 7,0 km/h (2 Bft)
18.09.2019 02:36 12,8 C 11,8 C 16,2 C 63 % 1016,6 hPa 0,0 l/m 4,8 km/h (1 Bft) W-SW 247 5,9 C 12,8 C 5,8 km/h (2 Bft)
18.09.2019 02:34 12,8 C 11,8 C 16,2 C 63 % 1016,7 hPa 0,0 l/m 4,7 km/h (1 Bft) S-SW 202 5,9 C 12,8 C 14,7 km/h (3 Bft)
18.09.2019 02:32 12,9 C 11,7 C 16,2 C 63 % 1016,7 hPa 0,0 l/m 5,1 km/h (1 Bft) S-SO 157 6,0 C 12,9 C 9,3 km/h (2 Bft)
18.09.2019 02:30 12,9 C 11,7 C 16,2 C 63 % 1016,7 hPa 0,0 l/m 6,9 km/h (2 Bft) NW 315 6,0 C 12,6 C 27,8 km/h (4 Bft)
18.09.2019 02:28 12,9 C 11,7 C 16,2 C 63 % 1016,7 hPa 0,0 l/m 7,6 km/h (2 Bft) S-SW 202 6,0 C 12,1 C 4,4 km/h (1 Bft)
18.09.2019 02:26 13,0 C 11,7 C 16,2 C 62 % 1016,7 hPa 0,0 l/m 8,7 km/h (2 Bft) W 270 5,9 C 11,6 C 3,3 km/h (1 Bft)
18.09.2019 02:24 12,9 C 11,7 C 16,3 C 63 % 1016,7 hPa 0,0 l/m 8,9 km/h (2 Bft) S 180 6,0 C 11,4 C 9,5 km/h (2 Bft)
18.09.2019 02:22 13,0 C 11,9 C 16,3 C 62 % 1016,7 hPa 0,0 l/m 8,7 km/h (2 Bft) W 270 5,9 C 11,6 C 18,7 km/h (3 Bft)
18.09.2019 02:20 13,0 C 11,9 C 16,3 C 62 % 1016,7 hPa 0,0 l/m 6,6 km/h (2 Bft) N-NO 22 5,9 C 12,9 C 19,3 km/h (3 Bft)
18.09.2019 02:18 13,1 C 11,8 C 16,3 C 62 % 1016,7 hPa 0,0 l/m 6,0 km/h (2 Bft) O-NO 67 6,0 C 13,1 C 11,8 km/h (2 Bft)
18.09.2019 02:16 13,1 C 11,6 C 16,3 C 63 % 1016,7 hPa 0,0 l/m 5,8 km/h (2 Bft) W 270 6,2 C 13,1 C 12,6 km/h (3 Bft)
18.09.2019 02:14 13,0 C 11,8 C 16,3 C 63 % 1016,8 hPa 0,0 l/m 6,8 km/h (2 Bft) W 270 6,1 C 12,8 C 6,8 km/h (2 Bft)
18.09.2019 02:12 13,0 C 11,6 C 16,3 C 63 % 1016,8 hPa 0,0 l/m 8,4 km/h (2 Bft) O-SO 112 6,1 C 11,8 C 7,1 km/h (2 Bft)
18.09.2019 02:10 13,0 C 11,2 C 16,3 C 63 % 1016,8 hPa 0,0 l/m 8,4 km/h (2 Bft) NO 45 6,1 C 11,8 C 7,9 km/h (2 Bft)
18.09.2019 02:08 13,0 C 11,0 C 16,3 C 63 % 1016,8 hPa 0,0 l/m 10,0 km/h (2 Bft) SW 225 6,1 C 10,9 C 7,3 km/h (2 Bft)
18.09.2019 02:06 13,1 C 11,4 C 16,3 C 63 % 1016,8 hPa 0,0 l/m 10,5 km/h (2 Bft) W 270 6,2 C 10,8 C 8,3 km/h (2 Bft)
18.09.2019 02:04 13,2 C 11,9 C 16,3 C 63 % 1016,8 hPa 0,0 l/m 10,6 km/h (2 Bft) SW 225 6,3 C 10,8 C 21,0 km/h (4 Bft)
18.09.2019 02:02 13,2 C 12,3 C 16,3 C 63 % 1016,8 hPa 0,0 l/m 9,0 km/h (2 Bft) W-NW 292 6,3 C 11,6 C 20,5 km/h (4 Bft)
18.09.2019 02:00 13,2 C 12,2 C 16,3 C 63 % 1016,8 hPa 0,0 l/m 8,5 km/h (2 Bft) NW 315 6,3 C 11,9 C 4,2 km/h (1 Bft)
18.09.2019 01:58 13,2 C 12,3 C 16,4 C 63 % 1016,8 hPa 0,0 l/m 8,5 km/h (2 Bft) SW 225 6,3 C 11,9 C 19,9 km/h (4 Bft)
18.09.2019 01:56 13,2 C 12,0 C 16,4 C 63 % 1016,8 hPa 0,0 l/m 7,9 km/h (2 Bft) W-NW 292 6,3 C 12,3 C 16,0 km/h (3 Bft)
18.09.2019 01:54 13,2 C 11,9 C 16,4 C 63 % 1016,6 hPa 0,0 l/m 7,6 km/h (2 Bft) SW 225 6,3 C 12,5 C 14,1 km/h (3 Bft)
18.09.2019 01:52 13,1 C 11,7 C 16,4 C 63 % 1016,6 hPa 0,0 l/m 7,6 km/h (2 Bft) W-SW 247 6,2 C 12,3 C 15,6 km/h (3 Bft)
18.09.2019 01:50 13,2 C 11,6 C 16,4 C 63 % 1016,6 hPa 0,0 l/m 7,2 km/h (2 Bft) S 180 6,3 C 12,7 C 7,0 km/h (2 Bft)
18.09.2019 01:48 13,2 C 11,7 C 16,4 C 63 % 1016,6 hPa 0,0 l/m 7,9 km/h (2 Bft) S 180 6,3 C 12,3 C 13,9 km/h (3 Bft)
18.09.2019 01:46 13,3 C 12,1 C 16,4 C 63 % 1016,6 hPa 0,0 l/m 7,2 km/h (2 Bft) W 270 6,4 C 12,8 C 8,9 km/h (2 Bft)
18.09.2019 01:44 13,4 C 12,4 C 16,4 C 63 % 1016,6 hPa 0,0 l/m 7,2 km/h (2 Bft) N 360 6,5 C 12,9 C 12,9 km/h (3 Bft)
18.09.2019 01:42 13,3 C 12,4 C 16,4 C 63 % 1016,6 hPa 0,0 l/m 7,6 km/h (2 Bft) W 270 6,4 C 12,6 C 10,2 km/h (2 Bft)
18.09.2019 01:40 13,3 C 12,0 C 16,4 C 63 % 1016,6 hPa 0,0 l/m 8,7 km/h (2 Bft) N 360 6,4 C 11,9 C 5,8 km/h (2 Bft)
18.09.2019 01:38 13,3 C 12,1 C 16,4 C 63 % 1016,6 hPa 0,0 l/m 9,3 km/h (2 Bft) W 270 6,4 C 11,6 C 11,8 km/h (2 Bft)
18.09.2019 01:36 13,3 C 11,9 C 16,6 C 63 % 1016,6 hPa 0,0 l/m 9,2 km/h (2 Bft) S-SW 202 6,4 C 11,7 C 11,0 km/h (2 Bft)
18.09.2019 01:34 13,3 C 11,6 C 16,6 C 63 % 1016,3 hPa 0,0 l/m 9,8 km/h (2 Bft) O-SO 112 6,4 C 11,3 C 13,1 km/h (3 Bft)
18.09.2019 01:32 13,4 C 12,0 C 16,6 C 63 % 1016,3 hPa 0,0 l/m 10,0 km/h (2 Bft) S 180 6,5 C 11,4 C 17,4 km/h (3 Bft)
18.09.2019 01:30 13,3 C 12,3 C 16,6 C 63 % 1016,3 hPa 0,0 l/m 10,3 km/h (2 Bft) W-NW 292 6,4 C 11,1 C 20,1 km/h (4 Bft)
18.09.2019 01:28 13,3 C 12,1 C 16,6 C 63 % 1016,3 hPa 0,0 l/m 10,1 km/h (2 Bft) W 270 6,4 C 11,2 C 18,5 km/h (3 Bft)
18.09.2019 01:26 13,3 C 11,9 C 16,6 C 63 % 1016,3 hPa 0,0 l/m 9,3 km/h (2 Bft) NW 315 6,4 C 11,6 C 16,0 km/h (3 Bft)
18.09.2019 01:24 13,3 C 11,9 C 16,6 C 63 % 1016,3 hPa 0,0 l/m 8,2 km/h (2 Bft) W-SW 247 6,4 C 12,2 C 17,2 km/h (3 Bft)
18.09.2019 01:22 13,4 C 12,2 C 16,6 C 63 % 1016,3 hPa 0,0 l/m 7,7 km/h (2 Bft) W-SW 247 6,5 C 12,6 C 13,1 km/h (3 Bft)
18.09.2019 01:20 13,3 C 12,1 C 16,6 C 64 % 1016,3 hPa 0,0 l/m 6,9 km/h (2 Bft) SW 225 6,6 C 13,0 C 12,4 km/h (3 Bft)
18.09.2019 01:18 13,2 C 11,8 C 16,6 C 64 % 1016,3 hPa 0,0 l/m 6,0 km/h (2 Bft) S-SO 157 6,5 C 13,2 C 7,5 km/h (2 Bft)
18.09.2019 01:16 13,3 C 11,2 C 16,6 C 64 % 1016,3 hPa 0,0 l/m 5,8 km/h (2 Bft) O 90 6,6 C 13,3 C 5,0 km/h (1 Bft)
18.09.2019 01:14 13,3 C 11,6 C 16,6 C 64 % 1016,5 hPa 0,0 l/m 6,8 km/h (2 Bft) S-SO 157 6,6 C 13,1 C 3,9 km/h (1 Bft)
18.09.2019 01:12 13,3 C 12,0 C 16,6 C 64 % 1016,5 hPa 0,0 l/m 6,8 km/h (2 Bft) S 180 6,6 C 13,1 C 13,5 km/h (3 Bft)
18.09.2019 01:10 13,3 C 11,7 C 16,6 C 64 % 1016,5 hPa 0,0 l/m 5,8 km/h (2 Bft) S 180 6,6 C 13,3 C 12,4 km/h (3 Bft)
18.09.2019 01:08 13,2 C 11,6 C 16,7 C 64 % 1016,5 hPa 0,0 l/m 4,8 km/h (1 Bft) W 270 6,5 C 13,2 C 8,3 km/h (2 Bft)
18.09.2019 01:06 13,2 C 12,0 C 16,7 C 64 % 1016,5 hPa 0,0 l/m 4,7 km/h (1 Bft) S-SW 202 6,5 C 13,2 C 3,7 km/h (1 Bft)
18.09.2019 01:04 13,2 C 11,8 C 16,7 C 63 % 1016,5 hPa 0,0 l/m 4,0 km/h (1 Bft) W-SW 247 6,3 C 13,2 C 12,0 km/h (2 Bft)
18.09.2019 01:02 13,2 C 10,7 C 16,7 C 63 % 1016,5 hPa 0,0 l/m 3,5 km/h (1 Bft) NO 45 6,3 C 13,2 C 5,6 km/h (1 Bft)
18.09.2019 01:00 13,2 C 9,7 C 16,7 C 63 % 1016,5 hPa 0,0 l/m 3,9 km/h (1 Bft) N 360 6,3 C 13,2 C 0,0 km/h (0 Bft)
18.09.2019 00:58 13,2 C 9,7 C 16,7 C 63 % 1016,5 hPa 0,0 l/m 5,3 km/h (1 Bft) S-SW 202 6,3 C 13,2 C 5,0 km/h (1 Bft)
18.09.2019 00:56 13,2 C 10,2 C 16,7 C 63 % 1016,5 hPa 0,0 l/m 4,8 km/h (1 Bft) S-SW 202 6,3 C 13,2 C 9,5 km/h (2 Bft)
18.09.2019 00:54 13,2 C 10,1 C 16,7 C 63 % 1016,7 hPa 0,0 l/m 5,0 km/h (1 Bft) S-SO 157 6,3 C 13,2 C 6,2 km/h (2 Bft)
18.09.2019 00:52 13,2 C 10,2 C 16,7 C 63 % 1016,7 hPa 0,0 l/m 5,0 km/h (1 Bft) SW 225 6,3 C 13,2 C 9,3 km/h (2 Bft)
18.09.2019 00:50 13,2 C 10,9 C 16,7 C 63 % 1016,7 hPa 0,0 l/m 5,1 km/h (1 Bft) SW 225 6,3 C 13,2 C 8,3 km/h (2 Bft)
18.09.2019 00:48 13,2 C 10,7 C 16,7 C 63 % 1016,7 hPa 0,0 l/m 4,5 km/h (1 Bft) O-SO 112 6,3 C 13,2 C 11,8 km/h (2 Bft)
18.09.2019 00:46 13,2 C 10,6 C 16,8 C 63 % 1016,7 hPa 0,0 l/m 4,7 km/h (1 Bft) NW 315 6,3 C 13,2 C 2,3 km/h (1 Bft)
18.09.2019 00:44 13,2 C 11,0 C 16,8 C 63 % 1016,7 hPa 0,0 l/m 5,1 km/h (1 Bft) NW 315 6,3 C 13,2 C 7,5 km/h (2 Bft)
18.09.2019 00:42 13,2 C 10,4 C 16,8 C 63 % 1016,7 hPa 0,0 l/m 5,5 km/h (1 Bft) W-NW 292 6,3 C 13,2 C 4,1 km/h (1 Bft)
18.09.2019 00:40 13,2 C 10,2 C 16,8 C 63 % 1016,7 hPa 0,0 l/m 6,3 km/h (2 Bft) S-SO 157 6,3 C 13,2 C 10,2 km/h (2 Bft)
18.09.2019 00:38 13,2 C 9,8 C 16,8 C 63 % 1016,7 hPa 0,0 l/m 6,0 km/h (2 Bft) S-SW 202 6,3 C 13,2 C 6,0 km/h (2 Bft)
18.09.2019 00:36 13,2 C 9,7 C 16,8 C 63 % 1016,7 hPa 0,0 l/m 7,2 km/h (2 Bft) SO 135 6,3 C 12,7 C 6,8 km/h (2 Bft)
18.09.2019 00:34 13,3 C 10,2 C 16,8 C 62 % 1015,9 hPa 0,0 l/m 7,4 km/h (2 Bft) NW 315 6,2 C 12,7 C 9,3 km/h (2 Bft)
18.09.2019 00:32 13,3 C 10,8 C 16,8 C 62 % 1015,9 hPa 0,0 l/m 7,4 km/h (2 Bft) SO 135 6,2 C 12,7 C 7,0 km/h (2 Bft)
18.09.2019 00:30 13,4 C 11,2 C 16,8 C 62 % 1015,9 hPa 0,0 l/m 8,0 km/h (2 Bft) NW 315 6,3 C 12,4 C 9,7 km/h (2 Bft)
18.09.2019 00:28 13,4 C 11,3 C 16,8 C 62 % 1015,9 hPa 0,0 l/m 8,5 km/h (2 Bft) S-SW 202 6,3 C 12,1 C 5,8 km/h (2 Bft)
18.09.2019 00:26 13,3 C 11,5 C 16,8 C 62 % 1015,9 hPa 0,0 l/m 9,3 km/h (2 Bft) S-SW 202 6,2 C 11,6 C 14,9 km/h (3 Bft)
18.09.2019 00:24 13,3 C 10,7 C 16,8 C 62 % 1015,9 hPa 0,0 l/m 9,3 km/h (2 Bft) S-SW 202 6,2 C 11,6 C 11,2 km/h (2 Bft)
18.09.2019 00:22 13,4 C 10,3 C 16,8 C 62 % 1015,9 hPa 0,0 l/m 9,3 km/h (2 Bft) SO 135 6,3 C 11,7 C 7,1 km/h (2 Bft)
18.09.2019 00:20 13,4 C 10,7 C 16,8 C 62 % 1015,9 hPa 0,0 l/m 8,5 km/h (2 Bft) S-SO 157 6,3 C 12,1 C 25,9 km/h (4 Bft)
18.09.2019 00:18 13,4 C 10,2 C 16,8 C 62 % 1015,9 hPa 0,0 l/m 8,0 km/h (2 Bft) SW 225 6,3 C 12,4 C 14,7 km/h (3 Bft)
18.09.2019 00:16 13,4 C 11,3 C 16,8 C 62 % 1015,9 hPa 0,0 l/m 8,5 km/h (2 Bft) S 180 6,3 C 12,1 C 18,3 km/h (3 Bft)
18.09.2019 00:14 13,4 C 11,0 C 16,8 C 62 % 1016,5 hPa 0,0 l/m 8,7 km/h (2 Bft) W-SW 247 6,3 C 12,0 C 20,9 km/h (4 Bft)
18.09.2019 00:12 13,4 C 10,7 C 16,8 C 62 % 1016,5 hPa 0,0 l/m 6,1 km/h (2 Bft) S 180 6,3 C 13,4 C 7,5 km/h (2 Bft)
18.09.2019 00:10 13,4 C 9,1 C 16,9 C 62 % 1016,5 hPa 0,0 l/m 6,1 km/h (2 Bft) S 180 6,3 C 13,4 C 7,5 km/h (2 Bft)
18.09.2019 00:08 13,4 C 9,1 C 16,9 C 62 % 1016,5 hPa 0,0 l/m 6,1 km/h (2 Bft) S 180 6,3 C 13,4 C 7,5 km/h (2 Bft)
18.09.2019 00:06 13,4 C 9,1 C 16,9 C 62 % 1016,5 hPa 0,0 l/m 6,1 km/h (2 Bft) S 180 6,3 C 13,4 C 7,5 km/h (2 Bft)
18.09.2019 00:04 13,4 C 9,1 C 16,9 C 62 % 1016,5 hPa 0,0 l/m 6,1 km/h (2 Bft) S 180 6,3 C 13,4 C 7,5 km/h (2 Bft)
18.09.2019 00:02 13,4 C 9,1 C 16,9 C 62 % 1016,5 hPa 0,0 l/m 6,4 km/h (2 Bft) W-SW 247 6,3 C 13,4 C 8,9 km/h (2 Bft)
18.09.2019 00:00 13,4 C 9,1 C 16,9 C 62 % 1016,5 hPa 0,0 l/m 6,0 km/h (2 Bft) S-SW 202 6,3 C 13,4 C 5,8 km/h (2 Bft)
_ Min-Zeit 07:08 00:00 07:42 00:00 00:16 - 07:44 - - 07:08 06:42 01:00
Minimum _ 10,2 C 9,1 C 15,1 C 62 % 1015,9 hPa - 1,3 km/h (1 Bft) - - 3,5 C 6,2 C 0,0 km/h (0 Bft)
_ Max-Zeit 00:00 01:42 00:00 07:40 07:16 00:00 04:22 - - 01:10 00:02 04:00
Maximum _ 13,4 C 12,4 C 16,9 C 65 % 1018,9 hPa 0,0 l/m 13,7 km/h
NW (3 Bft)
- - 6,6 C 13,4 C 41,7 km/h
NW (6 Bft)
Durchschnitt _ 12,0 C 11,0 C 16,0 C 63 % 1017,2 hPa #0,0 l/m 7,6 km/h (2 Bft) W-NW - 5,1 C 11,0 C 11,2 km/h (2 Bft)